084  
ASUS44 KSJT 142202  
RWRSJT  
WEST CENTRAL TEXAS REGIONAL WEATHER ROUNDUP  
NATIONAL WEATHER SERVICE SAN ANGELO TX  
500 PM CDT TUE AUG 14 2018  
 
NOTE: "FAIR" INDICATES FEW OR NO CLOUDS BELOW 12,000 FEET WITH NO  
SIGNIFICANT WEATHER AND/OR S TO VISIBILITY
.  
 
TXZ049-054-064>066-071>073-076>078-098-099-113-114-127-128-139-140-  
154-155-168>170-142300   
..LOCATIONS ACROSS WEST CENTRAL TEXAS
 
 
 
CITY SKY/WX TMP DP RH WIND PRES REMARKS
 
SAN ANGELO SUNNY 92 65 40 S18 29.91F  
ABILENE MOSUNNY 93 49 22 S15G21 29.92F  
DYESS AFB NOT AVBL  
JUNCTION CLOUDY 89 62 40 SE16 29.95F  
SWEETWATER MOSUNNY 89 65 44 S14 29.95F  
BROWNWOOD MOSUNNY 90 59 35 S15G21 29.94S  
COLEMAN CLEAR 89 64 41 S14 29.93F  
SONORA MOSUNNY 86 66 51 S13 30.00S  
OZONA FAIR 86 63 45 S22G33 29.97F  
BRADY MOSUNNY 88 61 40 SE15G21 29.96F  

 
 
TEXAS PANHANDLE/OKLAHOMA PANHANDLE  
 
CITY SKY/WX TMP DP RH WIND PRES REMARKS
 
AMARILLO SUNNY 95 53 24 SW16G22 29.93F  
BORGER PTSUNNY 82 66 58 S5 29.92F THUNDER  
CANADIAN PTSUNNY 81 73 75 S5 29.89F  
DALHART MOSUNNY 89 59 36 NE8G18 29.99F  
DUMAS CLEAR 87 60 40 NW8 29.97S  
GUYMON NOT AVBL  
HEREFORD PTCLDY 93 59 31 S7 29.96F  
PAMPA TSTM 67 63 86 SE30G43 29.98R  
PERRYTON MOSUNNY 85 69 60 N13 29.93F  

 
 
SOUTHERN PANHANDLE/SOUTH PLAINS/ROLLING PLAINS  
 
CITY SKY/WX TMP DP RH WIND PRES REMARKS
 
LUBBOCK MOSUNNY 92 59 33 SE15 29.94F  
SNYDER PTSUNNY 90 66 45 SE13 29.93S  
CHILDRESS MOSUNNY 95 64 35 S15 29.86F  
SEMINOLE NOT AVBL  

 
 
PERMIAN BASIN  
 
CITY SKY/WX TMP DP RH WIND PRES REMARKS
 
MIDLAND SUNNY 93 63 36 SE14 29.92F  
ODESSA SUNNY 93 57 29 SE9G16 29.93F  
WINK SUNNY 100 56 23 E10 29.86F  

 
 
FAR WEST/SOUTHWEST MOUNTAINS/TRANS PECOS  
 
CITY SKY/WX TMP DP RH WIND PRES REMARKS
 
ALPINE CLEAR 89 48 23 E3 30.06F  
DRYDEN NOT AVBL  
EL PASO MOSUNNY 96 42 15 VRB7 29.93F  
FORT STOCKTON SUNNY 98 54 22 E7 29.89F  
GUADALUPE PASS SUNNY 91 46 21 SW10 30.08F  
MARFA N/A 88 50 27 SE6 30.05  
PECOS PTCLDY 100 54 21 E9 29.86F  

 
 
DALLAS/FORT WORTH METROPLEX  
 
CITY SKY/WX TMP DP RH WIND PRES REMARKS
 
DFW AIRPORT CLOUDY 88 68 51 S14 29.91F  
FTW MEACHAM CLOUDY 86 70 58 SE10 29.91F  
DAL-EXECUTIVE CLOUDY 91 69 48 S12 29.93F  
GRAND PRAIRIE SUNNY 90 66 45 SE9 29.94F  
ADDISON MOSUNNY 90 68 48 S10G18 29.94F  
MESQUITE CLEAR 90 68 48 S10 29.94F  
LANCASTER PTCLDY 88 70 54 S7 29.94F  

 
 
NORTH CENTRAL TEXAS  
 
CITY SKY/WX TMP DP RH WIND PRES REMARKS
 
SHRMAN/DENISON MOCLDY 84 74 72 S14 29.94F  
GAINESVILLE CLOUDY 85 72 65 S15 29.94F  
BRIDGEPORT CLOUDY 87 67 51 S12 29.93F  
DENTON CLOUDY 88 71 57 S10 29.91F  
WAXAHACHIE CLOUDY 89 68 50 S13 29.95S  
GRANBURY CLOUDY 90 65 44 S10G16 29.93S  

 
 
WESTERN NORTH TEXAS  
 
CITY SKY/WX TMP DP RH WIND PRES REMARKS
 
WICHITA FALLS PTSUNNY 87 71 58 SE13 29.86F  
VERNON MOCLDY 96 68 40 S13G21 29.85F  
BRECKENRIDGE MOCLDY 91 66 43 S14G21 29.91S HAZE  
COMANCHE CLOUDY 91 62 39 S8 29.94F  

 
 
CENTRAL AND SOUTH CENTRAL TEXAS  
 
CITY SKY/WX TMP DP RH WIND PRES REMARKS
 
AUSTIN/BERGSTM CLOUDY 96 67 38 S12 29.90F  
WACO PTSUNNY 96 63 33 S18 29.91F  
HILLSBORO CLOUDY 89 70 54 SE12 29.94S  
TEMPLE CLOUDY 96 67 38 S15 29.92F  
KILLEEN-GRAY CLOUDY 94 63 35 SE12 29.92F  
FORT HOOD CLOUDY 93 64 37 S12G18 29.89F  
GEORGETOWN PTSUNNY 95 67 39 SE14 29.93F  
LAGO VISTA FAIR 95 63 34 SE10 29.95F  
SAN MARCOS MOSUNNY 95 70 44 SE13 29.91F  
NEW BRAUNFELS SUNNY 97 67 37 S16G23 29.89F  
RANDOLPH AFB MOSUNNY 95 68 41 SE12G30 29.91  
SAN ANTONIO MOSUNNY 97 65 34 SE12 29.91F  
STINSON SUNNY 98 62 30 SE15 29.88F  
PLEASANTON NOT AVBL  
LA GRANGE MOSUNNY 96 72 45 S13 29.91F  
GIDDINGS PTCLDY 95 67 39 S13G21 29.93S  

 
 
EAST TEXAS  
 
CITY SKY/WX TMP DP RH WIND PRES REMARKS
 
PARIS CLOUDY 83 74 74 S7 29.96F  
CLARKSVILLE NOT AVBL  
TYLER CLOUDY 95 64 35 S13 29.95F  
LONGVIEW MOSUNNY 94 70 45 S8 29.95F  
PALESTINE CLOUDY 94 66 39 SE7 29.95F  
NACOGDOCHES N/A 93 69 45 S13 29.97F  

 
 
TEXAS HILL COUNTRY AND EDWARDS PLATEAU  
 
CITY SKY/WX TMP DP RH WIND PRES REMARKS
 
LLANO NOT AVBL  
HORSESHOE BAY FAIR 93 63 36 S8 29.93F  
KERRVILLE SUNNY 92 64 39 SE9G18 29.96F  
FREDERICKSBRG PTSUNNY 89 60 37 S10G17 29.96F  
ROCKSPRINGS PTCLDY 88 63 42 S17G23 30.03F  
HONDO MOSUNNY 97 66 36 SE16G24 29.90F  
UVALDE CLEAR 94 63 36 SE12G18 29.90F  
DEL RIO MOSUNNY 93 70 46 SE12 29.86F  

 
 
SOUTHEAST TEXAS  
 
CITY SKY/WX TMP DP RH WIND PRES REMARKS
 
COLLEGE STN MOSUNNY 96 70 42 SE17G25 29.93S  
CALDWELL PTCLDY 96 66 36 S14G22 29.92F  
CROCKETT NOT AVBL  
BRENHAM MOSUNNY 95 68 41 S9G16 29.93F  
HUNTSVILLE MOSUNNY 94 69 44 VRB6 29.95F  
CONROE MOSUNNY 93 74 53 SE14 29.96F  
HOUSTON BUSH PTSUNNY 92 76 59 SE15 29.95F  
HOUSTON HOBBY FAIR 91 74 57 S15 29.95F  
PERLAND FAIR 90 74 59 S13 29.98F  
WHARTON CLEAR 92 67 43 SE12 29.96S  

 
 
THE UPPER TEXAS COAST  
 
CITY SKY/WX TMP DP RH WIND PRES REMARKS
 
ORANGE FAIR 90 76 64 S8 30.00F  
PORT ARTHUR FAIR 90 74 59 S9 29.98F  
GALVESTON FAIR 89 77 67 S12 29.98F  
ANGLETON FAIR 91 73 55 S13 29.96F  
BAY CITY FAIR 91 73 54 S13 29.95F  

 
 
TEXAS COASTAL BEND, RIO GRANDE PLAINS DEEP SOUTH TEXAS  
 
CITY SKY/WX TMP DP RH WIND PRES REMARKS
 
VICTORIA MOSUNNY 95 68 41 S18G24 29.93S  
BEEVILLE FAIR 94 70 45 SE16G23 29.90F  
ROCKPORT SUNNY 90 75 61 SE14 29.92F  
PORT ARANSAS CLEAR 89 76 65 SE14 29.94F  
PORT LAVACA PTCLDY 93 74 53 SE16G22 29.94  
CORPUS CHRISTI PTSUNNY 93 71 48 SE17G24 29.91F  
KINGSVILLE NAS PTSUNNY 93 71 48 SE18G25 29.89F  
COTULLA MOSUNNY 96 67 38 SE15G21 29.85F  
LAREDO SUNNY 101 64 29 E18 29.84F  
BROWNSVILLE FAIR 94 73 50 SE20G25 29.90F  
PORT ISABEL FAIR 91 72 53 SE23G30 29.89F  
HEBBRONVILLE NOT AVBL  
MCALLEN SUNNY 100 68 35 SE15G26 29.86F  
WESLACO NOT AVBL  
FALFURRIAS PTCLDY 96 71 43 E13G20 29.86F  
EDINBURG MOCLDY 99 62 29 SE14G23 29.86F  

 
 
 
CLICK HERE TO GO TO PREVIOUS BULLETINS.

The Nexlab TX Page Main Text Page